Simultaneous Nadir Overpasses (SNOs) Predictions

Prediction of SNOs between NOAA-21 and PACE Satellite Orbit:

Table of predicted SNOs for the next 14.0 days since TLE Epoch: 5/10/2024
Index Date (NOAA-21) Time (NOAA-21) Lat,Lon (NOAA-21) SZA (NOAA-21 ) Date (PACE) Time (PACE) Lat,Lon (PACE) SZA (PACE ) Distance(km) Time Diff (sec)
1 05/12/2024 02:15:06 79.77, 109.23 63.59 05/12/2024 02:15:52 79.77, 109.28 63.56 1.07 46
2 05/12/2024 03:05:43 -79.54, -81.36 116.84 05/12/2024 03:04:55 -79.53, -81.32 116.83 0.86 48
3 05/14/2024 06:41:29 79.75, 42.82 63.02 05/14/2024 06:42:09 79.75, 42.84 63.00 0.33 40
4 05/14/2024 07:32:06 -79.51,-147.77 117.41 05/14/2024 07:31:12 -79.51,-147.75 117.39 0.33 54
5 05/16/2024 11:07:52 79.74, -23.64 62.49 05/16/2024 11:08:25 79.73, -23.56 62.46 1.87 33
6 05/16/2024 11:58:30 -79.53, 145.49 117.89 05/16/2024 11:57:29 -79.52, 145.60 117.88 2.29 61
7 05/18/2024 15:34:14 79.70, -89.89 61.95 05/18/2024 15:34:40 79.70, -89.91 61.93 0.41 26
8 05/18/2024 16:24:52 -79.49, 79.24 118.43 05/18/2024 16:23:44 -79.49, 79.26 118.40 0.40 68
9 05/20/2024 20:00:37 79.70,-156.49 61.50 05/20/2024 20:00:55 79.70,-156.48 61.49 0.03 18
10 05/20/2024 20:49:57 -76.45, 29.16 123.15 05/20/2024 20:48:44 -76.19, 27.55 123.23 51.23 73



Historial Predications of SNOs between NOAA-21 and PACE
